GW1021 Weather Reports


time (UTC)temp
C
wind
direction
speed
KPH
gust
KPH
rain 1hr
cm
rain 24hr
cm
rain mn
cm
humidity
%
barometer
mb
20260509044717 11 193 4.8 4.8 0.30 0.18 0.18 99 1008.7
20260509044214 11 215 3.2 3.2 0.30 0.15 0.15 99 1008.8
20260509043710 11 223 3.2 3.2 0.30 0.13 0.13 99 1008.8
20260509043206 12 218 3.2 3.2 0.30 0.10 0.10 99 1008.9
20260509042703 12 230 4.8 4.8 0.30 0.08 0.08 99 1009.0
20260509042159 12 247 3.2 3.2 0.13 0.05 0.05 99 1009.0
20260509041656 12 245 4.8 4.8 0.18 0.03 0.03 99 1009.1
20260509041153 12 242 3.2 3.2 0.18 0.03 0.03 99 1008.9
20260509040652 12 289 8.0 9.7 0.13 0.00 0.00 99 1009.0
20260509040148 12 254 6.4 8.0 0.30 0.00 0.00 99 1009.1
20260509035645 12 265 6.4 8.0 0.30 0.86 0.86 99 1009.3
20260509035142 12 269 4.8 8.0 0.30 0.84 0.84 99 1009.1
20260509034639 12 225 4.8 4.8 0.36 0.81 0.81 99 1009.1
20260509034136 12 260 11.3 12.9 0.18 0.79 0.79 99 1009.3
20260509033633 12 250 8.0 11.3 0.13 0.76 0.76 99 1009.2
20260509033130 12 226 4.8 4.8 0.13 0.76 0.76 99 1009.2
20260509032628 12 236 4.8 4.8 0.18 0.74 0.74 99 1009.3
20260509032124 12 245 4.8 4.8 0.18 0.74 0.74 99 1009.4
20260509031622 12 249 3.2 3.2 0.00 0.71 0.71 99 1009.6
20260509031119 12 263 3.2 3.2 0.13 0.71 0.71 99 1009.3
20260509030617 12 280 1.6 3.2 0.13 0.71 0.71 99 1009.6
20260509030114 12 253 1.6 1.6 0.00 0.69 0.69 99 1009.3
20260509025610 12 273 3.2 3.2 0.18 0.69 0.69 99 1009.5
20260509025106 12 270 3.2 3.2 0.18 0.69 0.69 99 1009.4
20260509024602 12 258 4.8 4.8 0.13 0.66 0.66 99 1009.4
20260509024058 12 259 3.2 3.2 0.13 0.66 0.66 99 1009.4
20260509023556 12 267 4.8 8.0 0.18 0.64 0.64 99 1009.5
20260509023053 12 226 1.6 3.2 0.18 0.64 0.64 99 1009.6
20260509022549 12 260 6.4 8.0 0.13 0.61 0.61 99 1009.5
20260509022047 12 264 3.2 3.2 0.13 0.61 0.61 99 1009.6
20260509021544 12 258 6.4 9.7 0.18 0.58 0.58 99 1009.6
20260509021041 12 260 6.4 9.7 0.30 0.58 0.58 99 1009.7
20260509020539 12 253 8.0 9.7 0.48 0.56 0.56 99 1009.9
20260509020035 12 249 8.0 9.7 0.48 0.53 0.53 99 1009.6
20260509015535 12 255 4.8 8.0 0.30 0.48 0.48 99 1009.5
20260509015031 12 230 3.2 3.2 0.30 0.46 0.46 99 1009.0
20260509014528 12 247 3.2 3.2 0.30 0.43 0.43 99 1009.4
20260509014024 12 232 6.4 8.0 0.48 0.41 0.41 99 1009.2
20260509013522 12 262 1.6 1.6 0.43 0.38 0.38 98 1009.2
20260509013017 12 246 4.8 4.8 0.30 0.33 0.33 98 1009.3
20260509012514 12 312 4.8 4.8 0.48 0.30 0.30 98 1009.1
20260509012010 12 304 4.8 4.8 0.43 0.28 0.28 98 1009.1
20260509011509 12 295 8.0 9.7 0.30 0.23 0.23 97 1009.1
20260509011006 12 283 4.8 4.8 0.36 0.20 0.20 97 1009.2
20260509010503 12 319 4.8 4.8 0.18 0.18 0.18 97 1008.8
20260509010000 12 300 4.8 4.8 0.13 0.15 0.15 96 1008.7
20260509005458 12 306 1.6 3.2 0.13 0.15 0.15 96 1008.5
20260509004958 12 305 0.0 0.0 0.18 0.13 0.13 95 1008.8
20260509004455 12 321 1.6 1.6 0.18 0.13 0.13 95 1008.5
20260509003952 12 341 3.2 3.2 0.13 0.10 0.10 95 1008.9
20260509003451 12 309 3.2 3.2 0.30 0.10 0.10 95 1009.0
20260509002947 12 312 4.8 4.8 0.18 0.08 0.08 94 1008.9
20260509002445 12 308 3.2 3.2 0.00 0.05 0.05 93 1008.9
20260509001942 12 284 0.0 0.0 0.00 0.05 0.05 93 1008.5
20260509001438 12 298 1.6 1.6 0.13 0.05 0.05 93 1008.8
20260509000935 12 293 1.6 1.6 0.13 0.05 0.05 92 1009.0
20260509000433 12 285 3.2 3.2 0.00 0.03 0.03 92 1008.9
20260508235928 12 290 3.2 3.2 0.00 0.03 0.03 91 1008.9
20260508235427 12 281 1.6 3.2 0.00 0.03 0.03 91 1008.7
20260508234923 13 302 3.2 8.0 0.00 0.03 0.03 90 1009.1
20260508234420 13 304 3.2 4.8 0.18 0.03 0.03 89 1009.1
20260508233918 13 323 6.4 8.0 0.18 0.03 0.03 88 1008.9
20260508233417 13 277 8.0 8.0 0.00 0.00 0.00 86 1008.9
20260508232914 13 311 9.7 12.9 0.00 0.00 0.00 84 1009.3
20260508232410 14 277 11.3 12.9 0.00 0.00 0.00 81 1009.0
20260508231908 15 296 12.9 14.5 0.00 0.00 0.00 78 1008.9
20260508231405 15 294 9.7 11.3 0.00 0.00 0.00 77 1008.8
20260508230901 15 319 6.4 9.7 0.00 0.00 0.00 77 1008.7
20260508230358 15 302 11.3 12.9 0.00 0.00 0.00 74 1008.7
20260508225855 15 279 9.7 14.5 0.00 0.00 0.00 73 1008.3
20260508225352 15 280 12.9 14.5 0.00 0.00 0.00 71 1008.3
20260508224850 16 255 3.2 3.2 0.00 0.00 0.00 70 1008.3
20260508224347 15 264 9.7 11.3 0.00 0.00 0.00 68 1008.3
20260508223845 16 245 4.8 8.0 0.00 0.00 0.00 69 1008.5
20260508223342 16 276 6.4 11.3 0.00 0.00 0.00 70 1008.5
20260508222839 16 254 11.3 12.9 0.00 0.00 0.00 67 1008.4
20260508222336 16 249 11.3 11.3 0.00 0.00 0.00 65 1008.5
20260508221833 16 264 11.3 14.5 0.00 0.00 0.00 64 1008.7
20260508221328 16 228 8.0 9.7 0.00 0.00 0.00 63 1008.4
20260508220825 16 249 14.5 16.1 0.00 0.00 0.00 62 1008.4
20260508220321 16 226 3.2 3.2 0.00 0.00 0.00 64 1008.1
20260508215818 16 232 4.8 4.8 0.00 0.00 0.00 62 1008.1
20260508215315 17 228 4.8 8.0 0.00 0.00 0.00 61 1008.1
20260508214812 17 239 3.2 3.2 0.00 0.00 0.00 61 1008.0
20260508214309 17 224 6.4 8.0 0.00 0.00 0.00 59 1008.2
20260508213805 17 247 8.0 8.0 0.00 0.00 0.00 57 1008.3
20260508213302 17 227 8.0 9.7 0.00 0.00 0.00 57 1008.0
20260508212759 17 233 11.3 16.1 0.00 0.00 0.00 56 1008.2
20260508212255 17 188 9.7 11.3 0.00 0.00 0.00 57 1008.3
20260508211750 17 230 8.0 9.7 0.00 0.00 0.00 56 1008.2
20260508211246 17 255 9.7 11.3 0.00 0.00 0.00 57 1008.4
20260508210744 17 240 8.0 11.3 0.00 0.00 0.00 56 1008.4
20260508210241 17 237 8.0 9.7 0.00 0.00 0.00 56 1008.3
20260508205738 17 256 16.1 16.1 0.00 0.00 0.00 55 1008.4
20260508205234 17 227 8.0 8.0 0.00 0.00 0.00 56 1008.3
20260508204731 17 226 8.0 9.7 0.00 0.00 0.00 56 1008.4
20260508204227 17 241 9.7 12.9 0.00 0.00 0.00 56 1008.7
20260508203723 17 258 8.0 11.3 0.00 0.00 0.00 57 1008.5
20260508203220 17 236 8.0 9.7 0.00 0.00 0.00 56 1008.5
20260508202716 17 283 8.0 11.3 0.00 0.00 0.00 55 1008.8
20260508202213 17 233 8.0 9.7 0.00 0.00 0.00 56 1008.9
20260508201710 17 237 4.8 4.8 0.00 0.00 0.00 57 1008.9
20260508201206 17 234 9.7 12.9 0.00 0.00 0.00 56 1009.1
20260508200703 17 225 9.7 11.3 0.00 0.00 0.00 56 1009.1
20260508200159 17 227 6.4 8.0 0.00 0.00 0.00 57 1009.2
20260508195656 17 225 17.7 20.9 0.00 0.00 0.00 54 1009.2
20260508195152 17 236 12.9 17.7 0.00 0.00 0.00 56 1009.3
20260508194649 17 250 17.7 20.9 0.00 0.00 0.00 54 1009.6
20260508194146 17 229 14.5 16.1 0.00 0.00 0.00 55 1009.4
20260508193643 17 243 12.9 14.5 0.00 0.00 0.00 57 1009.6
20260508193140 17 230 9.7 11.3 0.00 0.00 0.00 57 1009.8
20260508192636 17 235 4.8 8.0 0.00 0.00 0.00 58 1009.8
20260508192134 17 244 4.8 4.8 0.00 0.00 0.00 59 1009.8
20260508191630 17 252 8.0 11.3 0.00 0.00 0.00 57 1010.0
20260508191127 17 257 9.7 11.3 0.00 0.00 0.00 59 1010.1
20260508190625 17 239 6.4 9.7 0.00 0.00 0.00 59 1010.2
20260508190121 17 230 16.1 20.9 0.00 0.00 0.00 57 1010.1
20260508185618 17 258 8.0 11.3 0.00 0.00 0.00 58 1010.2
20260508185115 17 250 8.0 11.3 0.00 0.00 0.00 59 1010.1
20260508184612 17 248 17.7 22.5 0.00 0.00 0.00 56 1010.2
20260508184109 17 258 6.4 8.0 0.00 0.00 0.00 59 1010.1
20260508183606 17 196 20.9 27.4 0.00 0.00 0.00 56 1010.1
20260508183102 17 233 9.7 11.3 0.00 0.00 0.00 57 1010.3
20260508182558 17 244 9.7 14.5 0.00 0.00 0.00 57 1010.6
20260508182055 17 264 14.5 16.1 0.00 0.00 0.00 56 1010.4
20260508181550 17 223 14.5 16.1 0.00 0.00 0.00 55 1010.2
20260508181048 17 257 19.3 22.5 0.00 0.00 0.00 54 1010.4
20260508180544 17 213 19.3 22.5 0.00 0.00 0.00 54 1010.5
20260508180041 17 241 14.5 20.9 0.00 0.00 0.00 56 1010.4
20260508175537 17 251 20.9 27.4 0.00 0.00 0.00 56 1010.6
20260508175035 18 250 14.5 20.9 0.00 0.00 0.00 57 1010.6
20260508174533 18 240 14.5 16.1 0.00 0.00 0.00 56 1010.6
20260508174029 18 236 16.1 17.7 0.00 0.00 0.00 57 1010.9
20260508173526 17 255 16.1 17.7 0.00 0.00 0.00 59 1010.8
20260508173022 17 226 14.5 16.1 0.00 0.00 0.00 58 1011.0
20260508172519 16 226 14.5 17.7 0.00 0.00 0.00 60 1011.2
20260508172015 16 239 16.1 20.9 0.00 0.00 0.00 61 1011.3
20260508171512 16 224 11.3 12.9 0.00 0.00 0.00 61 1011.4
20260508171009 16 228 17.7 17.7 0.00 0.00 0.00 60 1011.4
20260508170506 16 227 12.9 14.5 0.00 0.00 0.00 61 1011.5
20260508170003 16 234 11.3 12.9 0.00 0.00 0.00 61 1011.7
20260508165501 16 233 8.0 9.7 0.00 0.00 0.00 62 1011.6
20260508164956 16 226 12.9 14.5 0.00 0.00 0.00 60 1011.7
20260508164454 16 231 14.5 20.9 0.00 0.00 0.00 60 1011.8
20260508163950 16 216 9.7 9.7 0.00 0.00 0.00 61 1011.7
20260508163448 16 228 12.9 14.5 0.00 0.00 0.00 60 1011.8
20260508162944 16 231 12.9 14.5 0.00 0.00 0.00 61 1012.0
20260508162442 16 237 16.1 24.1 0.00 0.00 0.00 61 1012.1
20260508161938 16 251 12.9 16.1 0.00 0.00 0.00 61 1012.3
20260508161435 16 248 12.9 14.5 0.00 0.00 0.00 61 1012.0
20260508160932 16 230 11.3 12.9 0.00 0.00 0.00 60 1012.1
20260508160432 16 205 16.1 20.9 0.00 0.00 0.00 59 1012.0
20260508155927 16 201 17.7 20.9 0.00 0.00 0.00 58 1012.0
20260508155424 16 233 11.3 12.9 0.00 0.00 0.00 61 1012.0
20260508154921 16 208 17.7 20.9 0.00 0.00 0.00 58 1012.0
20260508154419 17 232 17.7 22.5 0.00 0.00 0.00 58 1012.3
20260508153915 16 246 12.9 14.5 0.00 0.00 0.00 61 1012.0
20260508153412 16 200 19.3 25.7 0.00 0.00 0.00 58 1012.3
20260508152908 16 235 12.9 16.1 0.00 0.00 0.00 58 1012.1
20260508152405 16 228 14.5 17.7 0.00 0.00 0.00 57 1012.0
20260508151902 16 230 14.5 20.9 0.00 0.00 0.00 62 1012.1
20260508151359 16 238 17.7 20.9 0.00 0.00 0.00 59 1012.3
20260508150854 16 239 16.1 17.7 0.00 0.00 0.00 60 1012.0
20260508150352 15 261 11.3 12.9 0.00 0.00 0.00 59 1012.1
20260508145848 15 264 9.7 12.9 0.00 0.00 0.00 61 1012.5
20260508145344 15 242 22.5 27.4 0.00 0.00 0.00 60 1012.4
20260508144841 15 256 9.7 11.3 0.00 0.00 0.00 62 1012.5
20260508144339 15 243 11.3 12.9 0.00 0.00 0.00 62 1012.5
20260508143836 15 254 12.9 14.5 0.00 0.00 0.00 59 1012.6
20260508143333 15 191 16.1 17.7 0.00 0.00 0.00 59 1012.6
20260508142830 15 230 17.7 22.5 0.00 0.00 0.00 60 1012.5
20260508142326 15 248 14.5 16.1 0.00 0.00 0.00 61 1012.6
20260508141823 15 260 17.7 20.9 0.00 0.00 0.00 61 1012.4
20260508141320 15 218 14.5 17.7 0.00 0.00 0.00 59 1012.7
20260508140818 14 220 19.3 22.5 0.00 0.00 0.00 59 1012.5
20260508140314 14 239 19.3 24.1 0.00 0.00 0.00 59 1012.6
20260508135810 14 251 14.5 16.1 0.00 0.00 0.00 60 1012.6
20260508135307 13 243 20.9 24.1 0.00 0.00 0.00 59 1012.7
20260508134802 13 236 12.9 16.1 0.00 0.00 0.00 60 1012.7
20260508134259 13 242 12.9 14.5 0.00 0.00 0.00 60 1012.8
20260508133756 13 245 11.3 14.5 0.00 0.00 0.00 61 1012.7
20260508133254 13 247 17.7 22.5 0.00 0.00 0.00 60 1012.7
20260508132751 13 236 11.3 14.5 0.00 0.00 0.00 61 1012.8
20260508132248 13 237 16.1 17.7 0.00 0.00 0.00 60 1012.8
20260508131744 12 244 9.7 11.3 0.00 0.00 0.00 62 1012.8
20260508131241 12 225 12.9 14.5 0.00 0.00 0.00 62 1012.8
20260508130737 12 227 16.1 17.7 0.00 0.00 0.00 60 1012.8
20260508130235 12 223 9.7 14.5 0.00 0.00 0.00 62 1012.6
20260508125730 12 221 9.7 12.9 0.00 0.00 0.00 61 1012.8
20260508125227 12 238 14.5 17.7 0.00 0.00 0.00 61 1012.9
20260508124725 12 189 12.9 14.5 0.00 0.00 0.00 62 1012.8
20260508124222 12 211 12.9 14.5 0.00 0.00 0.00 62 1012.7
20260508123720 11 251 14.5 17.7 0.00 0.00 0.00 62 1012.6
20260508123218 11 232 9.7 11.3 0.00 0.00 0.00 65 1012.5
20260508122713 11 210 11.3 12.9 0.00 0.00 0.00 64 1012.4
20260508122210 11 213 11.3 14.5 0.00 0.00 0.00 65 1012.5
20260508121709 11 232 11.3 12.9 0.00 0.00 0.00 65 1012.3
20260508121207 10 228 6.4 9.7 0.00 0.00 0.00 67 1012.5
20260508120703 10 230 11.3 14.5 0.00 0.00 0.00 66 1012.5
20260508120202 10 246 14.5 16.1 0.00 0.00 0.00 66 1012.4
20260508115659 10 247 11.3 12.9 0.00 0.00 0.00 67 1012.5
20260508115156 10 225 8.0 9.7 0.00 0.00 0.00 67 1012.5
20260508114653 10 233 8.0 9.7 0.00 0.00 0.00 68 1012.4
20260508114149 10 230 4.8 8.0 0.00 0.00 0.00 69 1012.5
20260508113646 10 199 11.3 12.9 0.00 0.00 0.00 69 1012.4
20260508113144 9 228 9.7 11.3 0.00 0.00 0.00 69 1012.3
20260508112640 9 225 8.0 9.7 0.00 0.00 0.00 70 1012.4
20260508112137 9 249 4.8 8.0 0.00 0.00 0.00 70 1012.3
20260508111634 9 212 8.0 9.7 0.00 0.00 0.00 71 1012.1
20260508111132 8 226 9.7 11.3 0.00 0.00 0.00 72 1012.0
20260508110629 8 228 6.4 8.0 0.00 0.00 0.00 72 1012.3
20260508110125 8 207 8.0 9.7 0.00 0.00 0.00 72 1012.1
20260508105620 8 226 3.2 3.2 0.00 0.00 0.00 73 1012.1
20260508105117 8 213 4.8 4.8 0.00 0.00 0.00 74 1011.8
20260508104615 8 206 4.8 4.8 0.00 0.00 0.00 74 1011.9
20260508104111 8 210 3.2 3.2 0.00 0.00 0.00 74 1011.9
20260508103608 8 203 6.4 8.0 0.00 0.00 0.00 73 1011.8
20260508103106 8 209 6.4 9.7 0.00 0.00 0.00 73 1012.0
20260508102603 8 237 6.4 9.7 0.00 0.00 0.00 73 1011.8
20260508102101 8 218 4.8 4.8 0.00 0.00 0.00 72 1012.0
20260508101558 9 239 6.4 8.0 0.00 0.00 0.00 72 1012.3
20260508101055 9 238 8.0 11.3 0.00 0.00 0.00 71 1012.3
20260508100553 9 226 6.4 8.0 0.00 0.00 0.00 70 1012.0
20260508100050 9 210 8.0 9.7 0.00 0.00 0.00 70 1011.9
20260508095547 10 236 9.7 11.3 0.00 0.00 0.00 70 1011.8
20260508095043 10 218 9.7 11.3 0.00 0.00 0.00 69 1011.9
20260508094541 10 227 6.4 8.0 0.00 0.00 0.00 69 1011.9
20260508094037 10 225 8.0 11.3 0.00 0.00 0.00 69 1012.0
20260508093534 10 234 4.8 4.8 0.00 0.00 0.00 70 1012.0
20260508093032 10 227 3.2 3.2 0.00 0.00 0.00 69 1012.1
20260508092529 10 221 6.4 9.7 0.00 0.00 0.00 68 1012.1
20260508092028 10 230 4.8 8.0 0.00 0.00 0.00 69 1012.0
20260508091525 10 239 4.8 4.8 0.00 0.00 0.00 69 1012.1
20260508091022 10 239 4.8 4.8 0.00 0.00 0.00 69 1012.1
20260508090520 10 234 4.8 4.8 0.00 0.00 0.00 68 1012.1
20260508090016 10 240 4.8 4.8 0.00 0.00 0.00 68 1012.3
20260508085513 10 240 6.4 8.0 0.00 0.00 0.00 67 1012.0
20260508085010 10 233 4.8 4.8 0.00 0.00 0.00 68 1012.1
20260508084507 10 249 4.8 8.0 0.00 0.00 0.00 68 1012.3
20260508084004 10 254 6.4 9.7 0.00 0.00 0.00 68 1012.3
20260508083501 10 235 4.8 4.8 0.00 0.00 0.00 67 1012.1
20260508082956 10 222 4.8 8.0 0.00 0.00 0.00 68 1012.3
20260508082453 10 255 8.0 9.7 0.00 0.00 0.00 67 1012.3
20260508081951 10 236 3.2 3.2 0.00 0.00 0.00 68 1012.3
20260508081448 10 226 4.8 4.8 0.00 0.00 0.00 68 1012.4
20260508080944 10 226 4.8 4.8 0.00 0.00 0.00 68 1012.1
20260508080442 10 253 4.8 8.0 0.00 0.00 0.00 68 1012.1
20260508075939 10 241 1.6 3.2 0.00 0.00 0.00 68 1012.1
20260508075436 10 245 3.2 3.2 0.00 0.00 0.00 69 1012.0
20260508074933 10 247 0.0 0.0 0.00 0.00 0.00 69 1012.3
20260508074431 10 253 4.8 4.8 0.00 0.00 0.00 69 1012.1
20260508073927 10 227 3.2 3.2 0.00 0.00 0.00 71 1012.5
20260508073425 10 239 3.2 3.2 0.00 0.00 0.00 69 1012.3
20260508072922 10 307 1.6 1.6 0.00 0.00 0.00 71 1012.5
20260508072418 10 351 1.6 1.6 0.00 0.00 0.00 70 1012.6
20260508071916 10 321 4.8 4.8 0.00 0.00 0.00 66 1012.8
20260508071413 10 245 3.2 3.2 0.00 0.00 0.00 67 1012.4
20260508070911 10 231 3.2 3.2 0.00 0.00 0.00 66 1012.4
20260508070409 10 235 4.8 4.8 0.00 0.00 0.00 66 1012.3
20260508065906 10 236 11.3 12.9 0.00 0.00 0.00 66 1012.3
20260508065404 10 240 6.4 9.7 0.00 0.00 0.00 66 1012.3
20260508064902 10 220 8.0 8.0 0.00 0.00 0.00 66 1012.4
20260508064359 10 210 6.4 8.0 0.00 0.00 0.00 66 1012.6
20260508063857 10 235 8.0 9.7 0.00 0.00 0.00 67 1012.6
20260508063354 10 246 4.8 4.8 0.00 0.00 0.00 67 1012.5
20260508062851 9 212 8.0 9.7 0.00 0.00 0.00 67 1012.6
20260508062349 10 216 6.4 8.0 0.00 0.00 0.00 67 1012.6
20260508061846 10 243 8.0 9.7 0.00 0.00 0.00 67 1012.4
20260508061343 10 231 6.4 9.7 0.00 0.00 0.00 66 1012.7
20260508060839 10 216 9.7 11.3 0.00 0.00 0.00 66 1012.6
20260508060337 10 222 11.3 12.9 0.00 0.00 0.00 66 1012.5
20260508055832 10 240 9.7 12.9 0.00 0.00 0.00 67 1012.6
20260508055330 10 197 11.3 12.9 0.00 0.00 0.00 66 1012.4
20260508054826 10 233 6.4 8.0 0.00 0.00 0.00 66 1012.6
20260508054324 10 223 11.3 14.5 0.00 0.00 0.00 66 1012.8
20260508053821 10 224 8.0 11.3 0.00 0.00 0.00 66 1012.7
20260508053318 10 230 8.0 9.7 0.00 0.00 0.00 66 1012.8
20260508052815 10 206 9.7 12.9 0.00 0.00 0.00 65 1012.8
20260508052312 10 227 9.7 9.7 0.00 0.00 0.00 66 1012.9
20260508051808 9 227 9.7 11.3 0.00 0.00 0.00 67 1012.8
20260508051304 9 226 9.7 11.3 0.00 0.00 0.00 68 1012.6
20260508050801 9 228 6.4 8.0 0.00 0.00 0.00 68 1012.8
20260508050258 9 215 6.4 8.0 0.00 0.00 0.00 69 1012.9
20260508045753 9 220 6.4 8.0 0.00 0.00 0.00 69 1012.9
20260508045251 9 220 6.4 8.0 0.00 0.00 0.00 69 1012.9
20260508044749 9 228 8.0 9.7 0.00 0.00 0.00 69 1013.0